Location: Unspecified
(45.3712°N, 0.6436°E)
Time: 22:42:42
(UTC+02:00)

ISS - Pass Details

Date: 13 July 2018
Orbit: 402 x 408 km, 51.6° (Epoch: 16 July)

Event Time Altitude Azimuth Distance (km) Brightness Sun altitude
Exits shadow 01:58:10 11° 76° (ENE) 1,417 -0.9 -22.8°
Drops below altitude 10° 01:58:25 - 74° (ENE) 1,509 -0.8 -22.8°
Sets 02:00:30 0° 66° (ENE) 2,333 0.3 -22.8°
